User: anonymous   Login
Location: Caltech
(34.1382°N, 118.1253°W)
Time: 10:08:34
(UTC-07:00)
Language:

Cosmos 1733 Rocket - Orbit

View from above orbital plane
View from above orbital plane
View from above satellite
View from above satellite

Ground track
Ground track

The orbit data is extracted from the following two-line orbital elements,

1 16612U 86018B   15239.89438701  .00000192  00000-0  20159-4 0  9992
2 16612 082.5177 194.9185 0018125 163.9407 248.2325 14.83964236493673
Epoch (UTC): 27 August 2015 21:27:55
Eccentricity: 0.0018125
inclination: 82.5177°
perigee height: 604 km
apogee height: 629 km
right ascension of ascending node: 194.9185°
argument of perigee: 163.9407°
revolutions per day: 14.83964236
mean anomaly at epoch: 248.2325°
orbit number at epoch: 49367

The dashed part of the orbit path shows where the satellite is in the earth's shadow,  

DLR